Dewpoint
58 59 59 59 60 60 62 62 61 61 61 59 57 56 58 56 57 53 43 50 53 60 57 39 35 33 33 33 34 31 26 25 25 22 24 26 24 26 30 33 38 45 46 51 57
54 59 58 59 59 59 61 61 61 60 60 59 57 56 58 56 49 44 50 51 54 59 46 42 35 34 31 31 31 27 26 26 26 24 25 25 24 24 30 34 38 53 54 55 56
55 58 58 58 59 59 61 60 60 60 60 59 58 57 57 54 44 44 54 54 53 56 49 46 41 34 31 31 28 27 25 26 22 26 27 26 25 24 30 29 37 52 54 54 55
56 59 58 58 59 59 60 60 60 60 60 59 58 58 56 52 41 50 56 56 54 53 46 39 37 31 29 28 28 23 23 24 30 28 27 26 25 22 24 24 34 54 55 55 54
56 59 57 58 58 59 60 60 60 60 59 59 59 57 52 47 47 54 57 58 50 47 43 43 42 34 27 27 27 25 23 26 28 25 27 25 24 22 23 25 38 53 54 54 54
56 58 57 57 57 59 59 60 60 60 60 59 58 57 50 44 51 53 52 50 47 48 45 44 41 37 28 26 25 26 27 25 26 25 25 23 23 21 23 25 43 51 52 54 54
55 57 57 57 57 58 58 59 59 59 59 59 58 52 47 44 54 54 52 48 49 45 45 44 44 37 30 27 27 26 23 23 24 25 23 23 22 19 23 25 28 41 48 50 52
55 56 57 56 56 58 58 58 59 59 59 59 57 50 42 46 54 52 53 52 51 48 47 46 43 37 29 28 25 23 23 20 23 24 26 22 17 21 22 22 23 27 34 44 48
54 56 57 56 56 56 57 58 58 59 58 58 51 47 39 45 42 53 53 51 51 50 47 45 42 30 26 22 22 23 18 19 22 23 22 18 16 19 18 18 19 21 24 32 42
54 56 56 56 56 56 57 58 57 57 55 51 48 42 42 37 41 43 53 54 48 47 45 44 40 30 24 20 18 19 17 18 19 21 20 16 17 16 19 15 14 14 21 31 36
51 56 57 56 56 56 56 53 49 48 50 44 43 41 38 38 41 39 46 49 47 44 38 41 36 31 23 20 19 17 17 17 19 22 20 17 15 16 17 19 18 14 15 25 30
52 56 57 56 55 55 52 46 42 43 43 42 42 41 38 38 37 38 39 41 42 37 37 32 30 28 25 22 20 18 16 17 22 23 18 19 18 19 19 19 18 19 16 19 22
51 56 57 55 55 53 48 42 45 43 37 37 40 40 37 36 35 36 37 37 37 35 35 30 27 26 24 21 18 15 15 16 15 22 21 15 9 18 20 17 19 19 20 20 22
50 54 56 56 52 50 45 44 43 36 27 29 31 35 37 35 33 35 38 34 33 30 29 28 27 24 22 19 15 12 16 21 22 12 7 8 -0 7 16 16 18 18 19 21 28
50 52 56 55 51 48 45 45 42 32 17 27 32 37 37 33 33 33 33 30 28 27 25 26 23 23 20 17 15 15 24 22 21 19 14 14 1 2 14 14 15 17 23 27 29
47 50 55 55 52 49 47 46 36 29 21 27 32 34 33 33 33 33 30 31 28 27 24 21 24 23 21 22 17 22 23 21 23 19 10 13 2 1 9 10 15 23 29 33 36
47 49 54 54 49 50 49 38 29 24 27 27 28 31 30 30 30 29 27 26 24 26 22 20 24 25 24 21 23 21 12 14 11 14 9 17 9 4 10 11 18 27 31 33 36
46 47 53 52 53 51 47 35 23 26 25 29 30 30 27 29 29 28 26 24 22 22 19 18 17 22 23 21 20 18 13 14 8 15 10 14 12 11 18 22 28 31 33 35 37
45 49 52 50 52 50 41 29 23 25 28 28 29 27 27 28 28 27 24 22 20 19 17 16 19 27 27 26 21 19 15 18 16 14 16 10 10 15 21 25 31 33 34 35 37
41 44 44 50 52 48 36 28 25 27 28 28 23 25 24 26 26 25 25 23 21 21 19 17 20 27 26 26 22 18 17 13 15 9 9 9 8 6 18 19 31 33 33 35 36
38 40 42 47 50 43 31 29 27 28 28 25 24 25 23 25 25 24 24 22 22 21 19 23 25 26 25 22 18 15 12 13 18 17 13 10 8 12 16 19 28 32 34 35 35
33 32 42 46 40 39 33 29 33 31 33 27 26 24 23 24 24 25 23 22 22 22 19 28 27 25 22 26 26 21 14 13 13 11 17 17 7 21 19 20 26 32 33 34 35
32 32 42 46 33 34 34 28 33 30 31 29 27 26 23 24 23 23 25 26 24 22 25 29 27 23 22 22 25 21 19 14 20 20 16 15 9 21 23 24 29 32 33 34 36
33 31 35 39 35 36 33 28 34 37 33 33 29 28 24 24 29 25 28 32 31 26 36 33 28 23 17 14 21 21 19 18 15 17 15 15 5 17 24 27 31 33 33 35 36
33 31 31 33 34 35 33 30 33 33 37 37 32 27 26 26 30 29 31 29 30 34 28 24 24 24 20 21 20 20 20 19 14 10 8 8 9 14 25 27 31 32 34 35 36
32 32 33 32 34 34 34 32 29 37 36 36 31 31 27 26 28 30 29 28 27 29 25 26 24 21 24 25 23 20 22 20 18 16 13 12 12 13 21 30 31 33 34 35 35
37 37 34 32 33 34 34 33 31 36 39 39 36 33 32 35 33 30 32 31 29 27 25 26 26 23 19 25 21 21 23 21 18 18 15 13 13 18 23 29 31 33 34 35 35
Lifted_Index
1 1 0 0 1 0 -0 -0 1 2 3 4 5 5 5 6 6 6 6 7 7 7 7 8 7 6 6 6 6 6 6 6 6 7 7 7 6 6 6 5 4 3 2 1 0
2 1 1 1 1 0 -0 -0 0 1 2 4 4 5 5 6 5 5 7 8 7 7 6 6 6 6 6 6 6 6 6 6 6 7 7 7 7 6 6 5 3 2 1 0 -0
3 1 1 1 1 0 -0 -0 0 1 2 3 4 5 5 5 4 5 7 8 8 7 6 5 5 5 5 5 6 6 6 6 6 7 7 7 7 7 6 6 4 2 0 0 -0
2 1 0 0 0 0 0 0 0 1 2 3 4 4 5 4 4 5 7 8 9 8 7 5 5 5 5 5 5 5 5 6 7 7 7 7 7 7 7 6 4 2 0 0 0
2 1 0 0 0 0 -0 0 1 1 1 2 3 4 4 3 4 6 7 8 8 8 7 5 5 6 6 5 5 5 5 6 7 7 7 7 7 7 7 7 5 2 1 0 0
2 2 1 0 -0 -0 -0 0 0 1 1 2 3 4 3 3 5 6 7 7 7 6 6 5 6 8 7 5 5 6 6 6 7 7 7 7 7 7 7 7 5 2 1 1 1
3 2 1 0 -0 -0 -0 -0 0 1 1 2 3 4 4 4 5 6 6 6 5 5 4 5 8 9 8 6 6 7 7 7 6 7 7 7 7 7 7 7 6 4 2 1 1
3 2 1 -0 -0 -0 -0 -0 0 1 2 3 4 4 5 5 6 6 5 5 4 4 4 6 8 9 8 7 7 7 7 7 6 7 7 7 6 7 8 8 7 6 4 3 2
3 2 1 -0 -0 -0 -0 -0 -0 1 2 3 4 5 5 6 6 6 5 4 4 3 4 6 8 8 8 6 6 7 7 7 7 6 7 6 6 7 8 8 8 7 6 5 4
3 2 1 0 0 0 0 0 0 1 2 4 5 5 6 6 6 6 5 5 4 3 4 5 6 6 6 6 5 6 7 7 6 6 6 6 6 7 8 8 8 8 7 7 6
3 2 1 0 0 1 1 1 1 3 4 5 5 6 6 6 6 7 6 5 4 3 3 4 4 4 6 6 6 7 7 7 6 6 6 6 6 7 7 7 7 7 7 8 8
3 2 1 0 1 1 1 2 3 4 4 5 6 6 6 6 6 7 7 6 4 2 2 3 3 4 6 7 7 7 7 6 6 6 6 6 6 6 7 7 7 7 8 8 8
2 2 1 1 1 1 2 2 3 4 4 5 5 6 6 6 6 6 7 6 5 3 3 3 4 6 7 7 7 7 7 6 6 5 5 5 5 6 6 7 7 8 8 8 8
3 2 1 1 1 1 2 3 3 4 4 4 4 5 5 6 6 7 7 7 6 5 5 6 6 7 7 7 7 7 6 6 5 5 5 5 4 5 6 6 6 7 8 8 8
3 2 1 1 1 1 2 3 4 4 3 4 4 5 5 5 6 7 7 7 7 7 7 7 7 7 6 6 6 6 6 6 5 5 4 4 4 4 5 5 6 6 7 8 8
3 2 1 1 1 2 2 3 4 4 3 4 4 4 5 5 5 6 6 7 7 7 7 7 7 6 5 5 6 6 5 5 4 4 4 4 4 4 5 5 5 6 7 7 8
3 2 2 1 2 2 3 3 4 4 4 5 5 4 4 5 5 5 6 6 7 7 7 6 6 5 4 5 5 5 5 4 3 2 3 4 4 4 5 5 6 6 6 7 7
4 2 2 2 2 2 3 4 4 4 5 5 4 4 4 4 4 5 5 6 6 6 6 6 5 4 4 4 5 5 5 4 2 2 3 4 4 5 6 6 6 6 6 7 7
4 3 2 2 3 3 4 4 4 5 5 4 4 3 3 3 4 4 5 5 6 6 6 5 4 4 4 4 5 5 5 4 3 3 3 3 4 5 5 6 6 6 6 6 7
4 3 3 3 3 3 4 4 4 5 4 3 3 3 3 3 4 4 5 5 5 5 5 4 3 3 3 4 5 5 5 5 4 3 2 2 3 4 5 5 5 5 6 6 7
4 3 3 3 3 3 4 4 5 4 4 3 2 2 3 3 4 4 5 5 5 5 4 3 3 2 3 4 5 5 5 5 4 3 2 2 3 4 4 4 4 5 6 7 7
4 4 3 3 3 4 4 5 4 4 3 3 2 2 2 2 3 4 4 4 4 4 3 3 3 2 3 4 5 5 5 4 4 3 3 2 3 4 5 4 5 5 6 7 8
5 4 4 3 3 4 5 5 4 3 3 2 2 2 2 2 3 3 3 3 3 3 3 2 2 2 2 3 4 4 4 4 4 4 3 3 3 4 5 5 5 5 6 7 8
5 4 3 3 3 4 5 4 3 3 2 2 2 2 2 2 3 3 3 3 2 2 2 2 2 2 2 2 3 3 4 4 4 3 3 3 3 4 5 5 5 5 6 7 8
5 5 4 3 3 4 4 4 3 3 2 2 2 2 2 2 2 3 2 2 2 2 1 1 2 2 2 2 2 3 3 3 3 3 3 3 3 4 5 5 5 5 6 6 7
6 6 5 4 4 4 4 3 3 3 2 2 2 2 2 2 2 2 2 2 2 2 2 2 2 2 2 2 2 2 2 3 3 3 3 3 4 5 5 5 5 5 5 5 6
7 7 6 4 4 4 4 3 3 2 2 1 1 2 2 2 2 2 2 2 3 2 2 2 2 2 2 2 2 2 2 3 3 4 4 4 4 5 5 5 5 6 6 5 5